Lid_Strength_Index
3 4 4 4 5 6 5 4 5 3 2 7 6 8 6 7 6 5 5 6 6 7 7 8 7 7 6 5 4 7 5 6 8 7 5 5 5 6 6 9 10 9 9 9
3 4 4 4 5 6 2 3 3 2 3 8 8 7 7 6 6 6 6 6 6 6 7 8 7 6 5 5 5 6 5 7 9 8 7 6 7 6 6 6 7 9 10 9
3 3 4 4 4 5 3 4 6 4 4 4 6 7 7 7 4 5 4 5 5 5 7 6 8 7 5 5 5 4 5 6 8 10 8 7 8 7 6 7 9 9 8 8
3 3 3 4 4 5 3 3 5 4 6 5 5 5 6 6 7 5 5 6 5 6 7 6 7 6 6 5 6 5 5 8 7 7 6 7 7 8 7 7 7 8 7 7
3 3 3 3 5 6 2 5 5 3 4 5 5 7 6 7 6 6 7 7 6 6 7 6 7 6 6 6 5 5 5 8 7 8 7 7 8 7 7 7 7 7 7 7
3 3 3 3 5 5 2 2 2 4 7 6 6 6 6 6 6 5 5 6 6 7 6 5 4 4 4 5 6 6 6 7 8 10 7 8 10 8 7 7 6 6 8 6
3 3 3 3 4 5 3 3 3 5 6 5 6 6 6 6 6 6 5 5 6 5 3 3 4 4 4 5 5 4 7 8 8 10 8 13 7 5 5 7 6 5 6 6
3 3 3 3 4 5 3 2 3 4 7 6 7 6 6 5 5 6 6 5 4 4 4 6 7 7 7 6 5 5 5 7 9 11 10 8 7 6 7 7 7 5 6 5
3 3 3 3 3 4 3 3 3 4 6 6 6 6 6 6 6 5 5 4 4 3 5 7 10 10 8 9 7 5 6 6 9 9 12 13 7 6 5 6 9 4 5 5
3 3 3 2 3 4 4 3 3 4 6 5 4 6 6 6 6 6 5 5 4 3 6 8 9 9 7 10 9 8 8 8 9 9 10 8 6 5 5 10 9 5 5 5
3 3 3 3 3 3 3 3 2 4 6 5 5 5 5 5 5 7 5 6 5 5 7 8 8 8 7 8 7 8 9 9 9 8 10 12 5 6 8 6 5 5 5 5
3 3 3 3 3 3 4 3 2 2 5 5 3 3 3 3 3 5 4 5 5 5 6 6 7 8 7 8 10 6 10 7 9 8 8 5 4 5 4 4 5 5 5 4
3 3 3 3 3 4 4 3 3 3 4 3 3 3 2 1 2 2 5 4 4 3 3 5 5 8 7 9 8 8 7 5 8 8 6 5 4 4 3 3 4 4 4 4
3 3 3 3 3 4 4 4 2 4 4 6 4 2 2 2 2 2 2 3 2 2 3 4 5 7 4 7 7 8 6 6 7 7 6 5 4 4 4 3 3 4 4 4
4 4 4 4 4 4 4 3 2 2 4 6 5 3 3 2 2 2 2 2 3 4 5 5 6 4 5 5 5 6 5 7 8 9 6 6 5 4 3 4 4 4 4 4
4 4 4 4 4 4 3 3 2 1 2 5 6 4 3 2 2 2 2 2 3 3 4 5 3 4 5 7 8 5 5 5 4 6 4 4 4 3 3 4 4 4 4 3
4 4 4 4 4 4 4 4 2 3 1 4 6 5 3 2 2 2 3 2 2 3 4 5 5 5 5 6 8 5 4 4 4 3 4 5 4 5 3 3 3 4 3 3
4 4 4 5 5 5 4 1 4 2 3 4 7 5 5 2 3 5 2 4 3 4 4 4 5 4 5 8 6 5 4 4 4 4 3 3 3 3 3 3 3 4 4 4
5 4 4 3 3 2 2 3 3 2 3 6 6 7 8 2 3 3 4 3 6 3 6 5 5 6 8 7 6 6 5 5 5 4 3 3 4 4 3 4 4 4 4 4
6 5 3 4 2 4 3 3 4 4 3 4 7 3 7 4 4 5 5 4 5 8 6 4 7 6 5 5 4 4 4 4 3 5 5 4 4 4 4 4 3 3 3 3
5 6 6 5 4 3 3 6 7 6 8 5 5 5 6 3 7 6 4 6 5 9 8 8 7 9 6 5 4 3 3 3 3 3 3 3 3 4 4 4 3 3 3 3
7 7 6 5 4 5 7 8 7 8 8 6 6 5 4 4 3 6 5 7 6 11 5 8 9 8 5 4 4 3 3 3 3 3 3 3 3 3 3 3 3 3 2 2
5 7 6 5 5 12 10 11 9 9 6 5 5 6 4 5 4 5 6 9 9 4 9 9 8 5 4 4 3 3 3 3 3 3 3 3 3 3 3 3 2 2 2 3
7 7 12 8 9 8 7 7 6 5 4 5 5 5 6 4 7 5 9 7 6 10 11 11 6 5 4 4 3 3 3 3 3 3 3 3 3 3 2 2 2 2 3 2
10 8 12 8 6 5 5 4 5 4 3 4 5 5 5 6 8 6 7 10 11 9 11 7 5 4 4 4 3 3 3 3 3 3 3 3 3 3 3 3 2 2 2 2
9 9 9 6 7 6 5 5 5 3 4 3 4 7 8 8 7 9 10 10 11 8 6 5 4 4 4 3 3 3 3 3 3 2 3 3 4 3 3 3 2 2 2 2
8 8 7 7 6 6 5 4 4 2 5 7 6 9 9 6 8 9 6 8 7 5 4 3 3 4 4 3 3 3 2 2 2 2 2 2 2 3 2 3 3 2 1 1